Weather History for Cleveland Burke, OH

Change the Weather History Date:

Thursday, January 5, 2012

  Actual Average Record
Temperature  
Mean Temperature 37 °F -  
Max Temperature 42 °F 35 °F 64 °F (1998)
Min Temperature 32 °F 25 °F 0 °F (1999)
Degree Days  
Heating Degree Days 28    
Moisture  
Dew Point 26 °F    
Average Humidity 67    
Maximum Humidity 79    
Minimum Humidity 51    
Precipitation  
Precipitation 0.00 in - - ()
Sea Level Pressure  
Sea Level Pressure 29.93 in    
Wind  
Wind Speed 14 mph (SW)    
Max Wind Speed 20 mph    
Max Gust Speed 30 mph    
Visibility 10 miles    
Events      
Averages and records for this station are not official NWS values.
T = Trace of Precipitation, MM = Missing Value Source: NWS Daily Summary

Daily Weather History Graph

Daily Weather History Graph

Search for Another Location

Airport:

Trip Planner

Search our weather history database for the weather conditions in past years. The results will help you decide how hot, cold, wet, or windy it might be!

Date:

Astronomy

Jan. 05, 2012 Rise Set
Actual Time 7:53 AM EST 5:10 PM EST
Civil Twilight 7:22 AM EST 5:41 PM EST
Nautical Twilight 6:47 AM EST 6:16 PM EST
Astronomical Twilight 6:14 AM EST 6:50 PM EST
Moon 2:13 PM EST (1/5) 4:37 AM EST (1/5)
Length of Visible Light 10h 19m
Length of Day
9h 17m
Waxing Gibbous, 87% of the Moon is Illuminated
Jan 5
Waxing Gibbous
Jan 9
Full
Jan 16
Last Quarter
Jan 23
New
Jan 30
First Quarter

Hourly Weather History & Observations

Time (EST) Temp. Windchill Dew Point Humidity Pressure Visibility Wind Dir Wind Speed Gust Speed Precip Events Conditions
12:53 AM 34.0 °F 24.2 °F 28.0 °F 79% 29.93 in 10.0 mi West 15.0 mph - N/A   Overcast
1:53 AM 34.0 °F 24.2 °F 28.0 °F 79% 29.94 in 10.0 mi West 15.0 mph - N/A   Overcast
2:53 AM 34.0 °F 24.6 °F 28.0 °F 79% 29.95 in 10.0 mi WNW 13.8 mph - N/A   Overcast
3:53 AM 34.0 °F 23.8 °F 28.0 °F 79% 29.96 in 10.0 mi WNW 16.1 mph - N/A   Overcast
4:53 AM 33.1 °F 23.0 °F 26.1 °F 75% 29.98 in 10.0 mi West 15.0 mph - N/A   Overcast
5:53 AM 33.1 °F 23.0 °F 27.0 °F 78% 30.01 in 10.0 mi West 15.0 mph - N/A   Overcast
6:53 AM 33.1 °F 23.9 °F 26.1 °F 75% 30.02 in 10.0 mi West 12.7 mph - N/A   Overcast
7:53 AM 32.0 °F 23.0 °F 26.1 °F 79% 30.01 in 10.0 mi West 11.5 mph - N/A   Overcast
8:53 AM 32.0 °F 23.6 °F 26.1 °F 79% 30.01 in 10.0 mi WSW 10.4 mph - N/A   Mostly Cloudy
9:53 AM 32.0 °F 23.6 °F 26.1 °F 79% 30.02 in 7.0 mi SW 10.4 mph - N/A   Overcast
10:53 AM 33.1 °F 24.4 °F 27.0 °F 78% 30.03 in 8.0 mi SW 11.5 mph - N/A   Mostly Cloudy
11:08 AM 33.8 °F 27.0 °F 26.6 °F 75% 30.01 in 9.0 mi SW 8.1 mph - N/A   Scattered Clouds
11:53 AM 35.6 °F 27.5 °F 26.6 °F 70% 29.99 in 10.0 mi SW 11.5 mph - N/A   Partly Cloudy
12:53 PM 37.0 °F 29.3 °F 28.0 °F 70% 29.98 in 10.0 mi SSW 11.5 mph - N/A   Clear
1:53 PM 39.0 °F 32.8 °F 28.0 °F 65% 29.96 in 10.0 mi SW 9.2 mph - N/A   Partly Cloudy
2:53 PM 39.9 °F 32.5 °F 27.0 °F 60% 29.94 in 10.0 mi SSW 12.7 mph - N/A   Mostly Cloudy
3:53 PM 39.9 °F 32.5 °F 25.0 °F 55% 29.91 in 10.0 mi SSW 12.7 mph - N/A   Clear
4:53 PM 41.0 °F 34.7 °F 24.1 °F 51% 29.88 in 10.0 mi South 10.4 mph - N/A   Clear
5:53 PM 39.9 °F 33.9 °F 25.0 °F 55% 29.88 in 10.0 mi South 9.2 mph - N/A   Scattered Clouds
6:53 PM 39.9 °F 32.5 °F 24.1 °F 53% 29.87 in 10.0 mi South 12.7 mph 20.7 mph N/A   Scattered Clouds
7:53 PM 39.9 °F 31.1 °F 23.0 °F 51% 29.86 in 10.0 mi South 17.3 mph 23.0 mph N/A   Clear
8:53 PM 39.9 °F 32.1 °F 23.0 °F 51% 29.83 in 10.0 mi South 13.8 mph 23.0 mph N/A   Clear
9:53 PM 39.9 °F 31.4 °F 24.1 °F 53% 29.81 in 10.0 mi South 16.1 mph 23.0 mph N/A   Clear
10:53 PM 42.1 °F 33.3 °F 25.0 °F 51% 29.80 in 10.0 mi SSW 19.6 mph 29.9 mph N/A   Clear
11:53 PM 41.0 °F 32.5 °F 26.1 °F 55% 29.78 in 10.0 mi South 17.3 mph 21.9 mph N/A   Clear